Terminal Aerodrome Forecast
Issued by NWS

Home | Current Version | Previous Version | Text Only | Print | Product List | Glossary Off
Versions: 1 2 3 4 5 6 7 8 9 10 11 12 13 14 15 16 17 18 19 20 21

000
FTUS43 KABR 281015 AAB
TAFATY
TAF AMD
KATY 281015Z 2810/2906 VRB03KT P6SM OVC010
      TEMPO 2811/2814 2SM BR BKN025
     FM281400 18006KT P6SM SKC=

USA.gov is the U.S. government's official web portal to all federal, state and local government web resources and services.